|
Comet 73P/Schwassmann-Wachmann 3
(
1 2 3 4
)
(Preview)
|
Events
|
38
|
25572
|
|
|
The periodic comet 73P/Schwassmann-Wachmann 3 with an orbital period of 5.43 to 5.46 will pass 0.0786 AU from the earth on May 12th, 2006.
The comet was discovery in 1930. It is expected to be visible to the naked eye.
Currently it is at magnitude 11.9 with a condensed nucleus. During the l...
|
|
|
|
|
|
Kreutz sungrazer
(Preview)
|
Solar System
|
1
|
3546
|
|
|
A Sungrazing comet, a member of the Kreutz sungrazer family, has plunged towards the sun and disintegrated. The Solar and Heliospheric Observatory (SOHO) managed to capture the comets as it passed through its field of view. [url=http://farm2.static.flickr.com/1377/536167151_8d2aa611eb_...
|
|
|
|
|
|
C/2007 F1 (LONEOS)
(Preview)
|
Solar System
|
4
|
6798
|
|
|
C/2007 F1 (LONEOS) ate TT R. A. (2000) Decl. Delta r Elong. Phase m1 m2 2007 03 21 11 20.41 +20 35.9 2.798 3.737 157.3 5.9 18.0 2007 03 26 11 12.95 +21 42.8 2.770 3.678 151.5 7.4 17.9 2007 03 31 11 05.45 +22 46.0 2.752 3.618 145.4 9.0 17.8 2007 04 05 10 58.01 +23 44.8 2.742 3.559 139.0 10.6 17.7 2007 04 10 10...
|
|
|
|
|
|
Comet 4P/Faye
(Preview)
|
Solar System
|
6
|
4691
|
|
|
The comet is starting to fade but it is condensed and relatively easy to spot. It is observable until May next year when it fades down to 16 magnitude. Date TT R. A. (2000) Decl. Delta r Elong. Phase Mag 2006 11 01 02 09.09 +06 18.1 0.686 1.674 171.2 5.2 10.5 2006 11 06 02 09.19 +05 16.0 0.690 1.670 166.5 8.0 10...
|
|
|
|
|
|
C/2005E2 (McNaught)
(Preview)
|
Solar System
|
3
|
6389
|
|
|
At discovery on March 12, by R. H. McNaught), the comet was faint as 16.4 magnitude . It has steadily been brightening.
Now it is below 11th magnitude in the constellation Capricorn.
It is predicted to reach to 10 magnitude from January to March. In the Southern Hemisphere, it is observable only u...
|
|
|
|
|
|
C/2006 VZ13 ( LINEAR )
(Preview)
|
Solar System
|
6
|
6389
|
|
|
The comet is brightening and may reach magnitude 9 in July. Just now it is observable in the Northern Hemisphere, in the constellation Cepheus. The comet was first discovered by the Lincoln Laboratory Near-Earth Asteroid Research project on November 13, 2006. Date TT R. A. (2000) Decl. Delta r Elon...
|
|
|
|
|
|
Comet 2006 P1 ( McNaught )
(
1 2 3
)
(Preview)
|
Solar System
|
21
|
15529
|
|
|
Comet 2006 P1 ( McNaught ) is observable as a magnitude 9 fuzzy star in the constellation Ophiuchus low in the evening sky, from the northern hemisphere .
The comet was discovered in August 21 2006 by Terry Lovejoy. It will pass 0.17 A.U. from the sun in mid January, reaching to magnitude 1. The comet w...
|
|
|
|
|
|
C/2006 WD4 (Lemmon)
(Preview)
|
Solar System
|
0
|
3295
|
|
|
C/2006 WD4 (Lemmon) was discovered as apparently asteroidal via the Mt. Lemmon survey. Discovery Date November 20, 2006 /2006 WD4 (Lemmon) Epoch 2007 Apr. 10.0 TT = JDT 2454200.5 T 2007 Apr. 28.3994 TT MPC q 0.591239 (2000.0) P Q z +0.001735 Peri. 292.6919 +0.3334336 -0.8815363 +/-0.0...
|
|
|
|
|
|
Spitzer Study of Comets
(Preview)
|
Solar System
|
4
|
5401
|
|
|
Title: A Spitzer Study of Comets 2P/Encke, 67P/Churyumov-Gerasimenko, and C/2001 HT50 (LINEAR-NEAT)
Authors: Michael S. Kelley, Charles E. Woodward, David E. Harker, Diane H. Wooden, Robert D. Gehrz, Humberto Campins, Martha S. Hanner, Susan M. Lederer, David J. Osip, Jana...
|
|
|
|
|
|
P/2007 E3 (LINEAR)
(Preview)
|
Solar System
|
0
|
3202
|
|
|
[url=http://comet-seki.net/jp/modules/newbb/viewtopic.php?topic_id=866&post_id=1176&order=0&...
|
|
|
|
|
|
Comet 2006 L1 (Garradd)
(Preview)
|
Solar System
|
0
|
2768
|
|
|
C/2006 L1 ( Garradd ) will be at opposition in December.
ate TT R. A. (2000) Decl. Delta r Elong. Phase m1
2006 12 01 08 37.86 +32 05.6 0.811 1.588 123.9 31.0 13.6
2006 12 06 07 56.48 +39 53.6 0.751 1.617 136.8 24.6 13.5
2006 12 11 06 56.92 +47 07.0 0.728 1.647 147.8 18.6 13.5
2006 12 16 05 41...
|
|
|
|
|
|
Comet 162P/Siding Spring
(Preview)
|
Solar System
|
5
|
4059
|
|
|
Title: Comet 162P/Siding Spring: A Surprisingly Large Nucleus
Authors: Y. R. Fernandez, H. Campins, M. Kassis, C. W. Hergenrother, R. P. Binzel, J. Licandro, J. L. Hora, J. D. Adams
Researchers present an analysis of thermal emission from comet 162P/Siding Spring (P/2004...
|
|
|
|
|
|
Comet 2006 T1 (Levy)
(
1 2
)
(Preview)
|
Solar System
|
11
|
19199
|
|
|
Comet 2006 T1 (Levy)
T 2006 Oct. 9.226 TT MPC
q 1.07182 (2000.0) P Q
Peri. 181.745 -0.276725 -0.907090
Node 284.416 +0.885574 -0.112577
e 1.0 Incl. 19.117 +0.373071 -0.405603
From 40 observations 2006 Oct. 2-3.
ate TT R. A. (2000) Decl. Delta r Elong. Ph...
|
|
|
|
|
|
Comet 17P/Holmes
(
1 2 3 4 5 … 8
)
(Preview)
|
Astronomy News
|
78
|
35880
|
|
|
The 17th magnitude comet 17P/Holmes currently in the constellation Perseus has rapidly brightened, becoming a magnitude 3, naked-eye object in the evening sky, according to astronomers in Japan, Persia and Europe. A...
|
|
|
|
|
|
Comet
(
1 2 3 4 5 … 6
)
(Preview)
|
Solar System
|
56
|
52517
|
|
|
I heard that a new comet was discovered today. Is this true, does anyone know?
|
|
|
|
|
|
Comet 8P/Tuttle
(
1 2
)
(Preview)
|
Events
|
14
|
9237
|
|
|
8P/Tuttle is a periodic comet in our solar system. Comet 8P/Tuttle is responsible for the Ursids meteor shower in late December. Read more This comet may reach mag 6 in January. pre>Date TT R. A. (2000) Decl. Delta r Elong. Phase m1 2007 12 01...
|
|
|
|
|
|
Comet 96P/Machholz 1
(
1 2 3
)
(Preview)
|
Events
|
20
|
13092
|
|
|
Comet 96P/Machholz 1 is observable as a morning sky object in the Northern Hemisphere. By the end of the month it will become observable in the Southern Hemisphere. ate TT R. A. (2000) Decl. Delta r Elong. Phase m1 m2 2007 03 31 01 02.06 -04 16.3 1.138 ...
|
|
|
|
|
|
Comet C/2007 W1 (Boattini)
(
1 2
)
(Preview)
|
Astronomy News
|
10
|
10644
|
|
|
A new magnitude 17.4, comet, was discovered by A. Boattini (Mt. Lemmon Survey) on November 20th, 2007, and confirmed by the later observations. The preliminary orbital elements of the comet indicate a perihelion passage on June 14th, 2008 at a distance of 0.7 AU from the Sun. The comet could reac...
|
|
|
|
|
|
Comet Hale-Bopp
(
1 2
)
(Preview)
|
Art gallery
|
12
|
11673
|
|
|
In 1997, Comet Hale-Bopp's intrinsic brightness exceeded any comet since 1811. Since it peaked on the other side of the Earth's orbit, however, the comet appeared only brighter than any comet in two decades. Visible are the two tails shed by Comet Hale-Bopp.
[img]http://photos13.fl...
|
|
|
|
|
|
Comet C/2006 M4 (SWAN)
(Preview)
|
Events
|
8
|
4299
|
|
|
Comet C/2006 M4 ( SWAN ), is now observable in the dawn skies of the northern hemisphere.
The comet is in the constellation Leo moving towards Bootes.
Expand (8kb, 742 x 460)
ate TT R. A. (2000) Decl. Del...
|
|
|
|
|
|
Comet 2003 R5 (SOHO)
(Preview)
|
Solar System
|
8
|
12613
|
|
|
Comet P/1999 R1 = 2003 R5 = 2007 R5 (SOHO) This comet was discovered by Bo Zhou on September 10, 2007 on real time images transmitted by the coronagraph C2 of the SOHO satellite. Sebastian Hönig (2006, Astron. Astrophysics. 445, 759) had previously announced the perihelion return of the comet C...
|
|
|
|
|
|
Comet dust
(Preview)
|
Astronomy News
|
2
|
4004
|
|
|
Contrary to expectations for a small icy body, much of the comet dust returned by the Stardust mission formed very close to the young sun and was altered from the solar systems early materials. When the Stardust mission returned to Earth with samples from the comet Wild 2 in 2006, scientists knew the m...
|
|
|
|
|
|
C/2007 E2, New Comet in Indus
(Preview)
|
Events
|
5
|
6079
|
|
|
Terry Lovejoy of Thornlands, Queensland, Australia, has discovered a 9th-magnitude comet in the southern constellation Indus. In reporting the find to the Central Bureau for Astronomical Telegrams (CBAT), Lovejoy described the comet as having a green, 4' coma with a slight extension to th...
|
|
|
|
|
|
Comet 2007 S1 (Zhao)
(Preview)
|
Solar System
|
5
|
7380
|
|
|
Haibin Zhao (Purple Mountain Observatory, XuYi Station) discovered on September 17, 2007 a new magnitude 18 comet on CCD images obtained with the 1.04 metre, f/1.8 Schmidt telescope. The object was confirmed by observations of LONEOS from the 8 to 15 September 2007 by Tim Spahr. Preliminary orbi...
|
|
|
|
|
|
Comet C/2008 J1 (Boattini)
(Preview)
|
Solar System
|
1
|
3130
|
|
|
Andrea Boattini at the Catalina Sky Survey discovered a new comet on May 2, 2008. The preliminary orbital elements of the comet C/2008 J1 (Boattini) indicate a perihelion passage on the 17th March 2008, at a distance of 1.5 AU from the Sun. Currently at magnitude 14, the comet is visible in the nort...
|
|
|
|
|
|
Comet 174P/Echeclus
(
1 2
)
(Preview)
|
Astronomy News
|
12
|
20005
|
|
|
Astronomers have found a `complex structure` around coma of Centaur 60558 (it was first reported by Choi and Weissman in late 2005, and originally classified as a Centaur) . The object is now known as comet 174P/Echeclus.
It was imaged using the 1.8 meter Vatican Advanced Technology Telescope on...
|
|
|
|
|
|
Comet C/2007 Y1 (LINEAR)
(Preview)
|
Solar System
|
0
|
2874
|
|
|
A magnitude 18.4 object, having the appearance of an asteroid, was discovered on December 16, 2007 by the LINEAR monitoring telescope. The cometary nature was revealed during confirmation observations of the object. The preliminary orbital elements of the comet C/2007 Y1 (LINEAR) indicate...
|
|
|
|
|
|
Comet C/2007 Y2 (McNaught)
(Preview)
|
Solar System
|
0
|
2859
|
|
|
A new magnitude 18.5 comet was discovered by Rob H. McNaught on images taken with the Uppsala 0.5 meter Schmidt telescope of the Siding Spring Survey on December 31, 2007. The comet was confirmed by D. M. Burton (Australian National University, ANU) using the 1 metre Siding Spring reflector. The pre...
|
|
|
|
|
|
Comet C/2007 W3 (LINEAR)
(Preview)
|
Solar System
|
0
|
2965
|
|
|
